Showing default

YAMAL 401, 40345

Orbit data source: Space-Track

YAMAL 401, 40345 is a payload satellite owned by Gazprom KS (CIS) in GEO that was launched on Mon, 15 Dec 2014 UTC via a PROTON-M/BRIZ-M launch vehicle from the Tyuratam Missile And Space Complex (TTMTR). Payload-class satellites include a variety of spacecraft equipped with specific instruments for various scientific and technological missions. These include communications satellites like Starlink; space stations such as the ISS; scientific satellites like the Hubble; Earth observation satellites from companies like Planet Labs, Umbra, and HawkEye 360; GPS; miniature CubeSats for education and research; and military/defense satellites.

Not visible in the next 10 days
Identifier
40345, 2014-082A
Orbit
GEO
Country
Flag of CISCIS
Related business
Manufacturer
Resehetnev ISS
Mission
Operational Commercial Communications
Bus & Motor
EKSPRESS-2000, AOCS
Mass
2,976 kg wet, 2,500 kg dry
Launch date (UTC)
2014-12-15 (11 years ago)
Launch vehicle
PROTON-M/BRIZ-M
Launch site
Tyuratam Missile And Space Complex (TTMTR)
Object type
Payload
Rocket body
Debris
Shape & HBR
Box + 2 Pan, 17.5 m
Radar Cross Section
29.721 m², Large (>1 m²)

Expand to show TLE details & history
Last TLE update: 5 hours ago

TLE from 5 hours ago
0 YAMAL 401
1 40345U 14082A   25261.03447369 -.00000249  00000-0  00000-0 0  9999
2 40345   0.0100 152.6714 0000735  96.5234 210.3724  1.00273235 39182
Epoch: 2025-09-18T00:49Z
TLE epoch observation values (Epoch: 2025-09-18T00:49:38.526Z)
Latitude
-0.02788°
Longitude
89.95238°
Altitude
35,788.342 km
Speed
3.075 km/s
True Right ascension
06h 38m 15s
True Declination
0° 01' 40"
Sunlit
Object was in daylight at epoch
Visualization orbit readout
Latitude
Unknown
Longitude
Unknown
Altitude
Unknown
Speed
Unknown
Apparent Right ascension
Unknown
Apparent Declination
Unknown
Sunlit
N/A
Visualization observer readout
Local Sidereal Time
22:37:26
Azimuth
Unknown
Elevation
Unknown
Doppler factor
Unknown
Orbital elements
Apogee altitude
35,790.358 km
Perigee altitude
35,784.16 km
Semi-major axis
42,165.396 km
Eccentricity
0.00007
Inclination
0.01°
RAAN
152.6714°
Arg. of periapsis
96.5234°
True anomaly
210.36814°
Mean anomaly
210.3724°
Eccentric anomaly
210.37027°
Mean motion
0.25067 °/min
Orbital period
1,436.13 mins
BSTAR
0
Loading maneuver chart data...
Computing Atmospheric mass density...
Loading historical data...
Loading historical data...
Loading historical data...
Loading historical data...
Loading historical data...
Loading historical data...
Loading historical data...
Other satellites on launch #82 in the year 2014 (2014-12-15 UTC)

Documentation

Showing up to 5 results
|